レモン彗星

C/2016 X1 ( Lemmon )

English version
Home page
Updated on August 15, 2020

---------------------------------------------------------------------

・ プロフィール

発見日 2016年12月8日
発見光度 20.1等
発見者 G. J. Leonard (Mount Lemmon)

・ 写真集

・ 軌道要素

Epoch 2019 Apr. 27.0 TT = JDT 2458600.5
T 2019 Apr. 29.73961 TT                                 Rudenko
q   7.5642623            (2000.0)            P               Q
z  +0.0005823      Peri.  224.55749     -0.44337764     -0.78477394
 +/-0.0000016      Node   256.42669     +0.89508219     -0.36211561
e   0.9955957      Incl.   26.45590     +0.04737238     -0.50299319
From 257 observations 2016 Nov. 26-2020 Feb. 24, mean residual 0".6.

・ 光度変化

        m1 = -3.5 + 5 logΔ + 20.0 log r(t + 150)

---------------------------------------------------------------------

軌道要素はM.P.E.C. 2020-G65に掲載されたものです。
光度グラフはComet for Windowsで作成したものです。

---------------------------------------------------------------------

Copyright(C) Seiichi Yoshida (comet@aerith.net). All rights reserved.